Regional Weather Roundup
Issued by NWS

Home | Current Version | Previous Version | Text Only | Print | Product List | Glossary Off
Versions: 1 2 3 4 5 6 7 8 9 10 11 12 13 14 15 16 17 18 19 20 21 22 23 24 25 26 27 28 29 30 31 32 33 34 35 36 37 38 39 40 41 42 43 44 45 46 47 48 49 50

000
ASUS43 KOAX 261410
RWRNE

WEATHER ROUNDUP FOR NEBRASKA
NATIONAL WEATHER SERVICE OMAHA NE
900 AM CDT TUE JUL 26 2016

NOTES: SATELLITE DATA IS BEING USED TO AUGMENT CLOUD COVER ABOVE
       12000 FEET.
       "FAIR" INDICATES FEW OR NO CLOUDS BELOW 12,000 FEET WITH NO
       SIGNIFICANT WEATHER AND/OR OBSTRUCTIONS TO VISIBILITY.

  * THESE STATIONS DO NOT REPORT WEATHER SUCH AS RAIN...SNOW OR FOG.

NEZ001>004-019>022-054>056-261500-
NEBRASKA PANHANDLE

CITY           SKY/WX    TMP DP  RH WIND       PRES   REMARKS
SCOTTSBLUFF    CLOUDY    69  60  73 SE9       30.06F
ALLIANCE       SUNNY     69  65  86 S17G25    30.07S
CHADRON        SUNNY     74  61  63 S9        30.02R
KIMBALL        CLOUDY    68  57  68 S13       30.13F
SIDNEY         SUNNY     70  64  81 S16       30.12S
$$

NEZ057>060-069>072-079>082-261500-
SOUTHWEST NEBRASKA

CITY           SKY/WX    TMP DP  RH WIND       PRES   REMARKS
NORTH PLATTE   SUNNY     72  66  81 S10       30.09F
IMPERIAL       CLOUDY    70  65  84 S12       30.12S
LEXINGTON      CLOUDY    70  67  92 S9        30.12S FOG
MCCOOK         PTSUNNY   71  66  84 S12       30.12R
OGALLALA       CLOUDY    71  66  85 S9        30.10F
$$

NEZ005>010-023>029-035>040-094-261500-
NORTH CENTRAL NEBRASKA

CITY           SKY/WX    TMP DP  RH WIND       PRES   REMARKS
VALENTINE      SUNNY     77  63  61 SW15      30.06R
AINSWORTH      SUNNY     73  65  77 S14       30.08R
BROKEN BOW     SUNNY     70  66  87 S13G21    30.09F
O`NEILL        SUNNY     74  63  68 S10       30.07F
ORD            SUNNY     71  63  75 S9        30.08F
THEDFORD       SUNNY     74  66  75 S18       30.09F
$$

NEZ041-046>049-061>064-073>077-083>087-261500-
SOUTH CENTRAL NEBRASKA

CITY           SKY/WX    TMP DP  RH WIND       PRES   REMARKS
GRAND ISLAND   SUNNY     74  63  68 S7        30.11R
AURORA         SUNNY     73  68  85 SE6       30.10S
HASTINGS       SUNNY     71  62  73 S7        30.11S
HEBRON         SUNNY     73  67  81 E3        30.09S
HOLDREGE       SUNNY     71  66  83 S6        30.12R
KEARNEY *      SUNNY     72  64  78 S8        30.12S
YORK           SUNNY     73  68  83 SE5       30.10S
$$

NEZ011>018-030>034-042>045-261500-
NORTHEAST NEBRASKA

CITY           SKY/WX    TMP DP  RH WIND       PRES   REMARKS
NORFOLK        SUNNY     73  66  78 S9        30.09S
ALBION         SUNNY     71  65  82 S5        30.10S
BLAIR          SUNNY     74  67  79 S3        30.09S
FREMONT        SUNNY     75  66  72 SE5       30.09S
TEKAMAH        SUNNY     73  66  78 SE7       30.08S
WAYNE          SUNNY     73  69  87 S5        30.09S
$$

NEZ050>053-065>068-078-088>093-261500-
SOUTHEAST NEBRASKA

CITY           SKY/WX    TMP DP  RH WIND       PRES   REMARKS
LINCOLN        SUNNY     73  67  81 CALM      30.09F
OMAHA EPPLEY   MOSUNNY   75  66  73 S6        30.09R
BEATRICE       SUNNY     74  67  80 SE3       30.10R
FALLS CITY     SUNNY     73  67  81 SE3       30.08S
NEBRASKA CITY  SUNNY     73  71  92 E3        30.10S
PLATTSMOUTH    SUNNY     74  66  77 SE5       30.10S
$$

NEZ044-045-051>053-067-261500-
OMAHA AREA

CITY           SKY/WX    TMP DP  RH WIND       PRES   REMARKS
OMAHA EPPLEY   MOSUNNY   75  66  73 S6        30.09R
BLAIR          SUNNY     74  67  79 S3        30.09S
FREMONT        SUNNY     75  66  72 SE5       30.09S
MILLARD        SUNNY     75  67  76 SE5       30.09S
OFFUTT AFB     SUNNY     71  71 100 SE5       30.09R
PLATTSMOUTH    SUNNY     74  66  77 SE5       30.10S
WAHOO          FAIR      73  68  84 SE7       30.09S
$$




USA.gov is the U.S. government's official web portal to all federal, state and local government web resources and services.